[[{"header":{"parameterUnit":"m.s-1","parameterCategory":1,"la1":30.2991,"la2":30.254,"lo1":-89.0895,"lo2":-89.0444,"dy":0.0017,"dx":0.0017,"nx":28,"ny":28,"refTime":"2024-05-11T09:00:00:Z","depth":0,"parameterNumber":2,"parameterNumberName":"U-component_of_WINDS"},"data":[0,0,0,0,0,0,0,0,0,0,0,0,0,0,0,0,0,0,0,0,0,0,0,0,0,0,0,0,0,0,0,0,0,0,0,0,0,0,0,0,0,0,0,0,0,0,0,0,0,0,0,0,0,0,0,0,0,0,-3.2666,-3.2666,0,-3.2682,-3.2682,-3.2682,-3.2661,-3.2661,-3.266,-3.2659,-3.2675,-3.2676,-3.2677,0,0,0,0,0,0,0,0,0,0,0,0,0,-3.2617,-3.2618,-3.2666,-3.2666,-3.2666,-3.2682,-3.2682,-3.2682,-3.2662,-3.2661,-3.266,-3.2659,-3.2675,-3.2676,-3.2678,0,0,0,0,0,0,0,0,0,0,0,0,0,-3.2636,-3.2618,-3.2666,-3.2658,-3.2657,-3.2682,-3.2682,-3.2682,-3.2662,-3.2661,-3.2659,-3.2658,-3.2674,-3.2676,-3.2678,-3.2711,0,0,-3.2683,-3.2684,0,0,0,0,0,0,0,0,-3.2635,-3.2638,-3.2659,-3.2658,-3.2658,-3.2669,-3.2671,-3.2692,-3.2662,-3.266,-3.2659,-3.2658,-3.2674,-3.2676,-3.2681,-3.2712,-3.2712,-3.2683,-3.2684,-3.2685,-3.2685,0,0,0,0,0,0,0,-3.2634,-3.2637,-3.2672,-3.2659,-3.2659,-3.2653,-3.2655,-3.2675,-3.2673,-3.266,-3.2659,-3.2661,-3.2673,-3.2679,-3.2681,-3.2713,-3.2683,-3.2685,-3.2686,-3.2686,-3.277,-3.2771,0,0,0,0,0,0,-3.2633,-3.2636,-3.2672,-3.2673,-3.2643,-3.2655,-3.2657,-3.2666,-3.2673,-3.2673,-3.2662,-3.266,-3.2677,-3.2679,-3.2682,-3.2719,-3.2685,-3.2686,-3.2687,-3.2768,-3.277,-3.2771,0,0,0,0,0,0,-3.2632,-3.2637,-3.2671,-3.2654,-3.2658,-3.2657,-3.2668,-3.2667,-3.2673,-3.2674,-3.2674,-3.2668,-3.2676,-3.2679,-3.2703,-3.272,-3.2687,-3.2689,-3.2767,-3.2769,-3.277,-3.2796,0,0,0,0,0,0,-3.2631,-3.2636,-3.2649,-3.2654,-3.2659,-3.2693,-3.2669,-3.2668,-3.2676,-3.2674,-3.268,-3.268,-3.2676,-3.2701,-3.2705,-3.2722,-3.269,-3.2765,-3.2768,-3.277,-3.2794,-3.2799,-3.2803,0,0,0,0,0,-3.2629,-3.2656,-3.265,-3.2654,-3.2675,-3.2694,-3.2696,-3.2691,-3.2678,-3.269,-3.2691,-3.268,-3.2718,-3.2704,-3.2708,-3.2725,-3.2764,-3.2767,-3.277,-3.2792,-3.2798,-3.2803,0,0,0,0,0,0,-3.2653,-3.2657,-3.265,-3.2679,-3.2686,-3.269,-3.2706,-3.2698,-3.2708,-3.2706,-3.2698,-3.27,-3.2725,-3.2728,-3.2712,-3.2757,-3.2739,-3.2742,-3.2754,-3.276,-3.2764,-3.2762,-3.2691,0,0,0,0,0,-3.2662,-3.2677,-3.2679,-3.2705,-3.2709,-3.2707,-3.2715,-3.271,-3.2717,-3.272,-3.2722,-3.2729,-3.2743,-3.2752,-3.2764,-3.2795,-3.2795,-3.2809,-3.2813,-3.2817,-3.282,-3.2834,-3.284,-3.278,-3.278,-3.278,0,0,-3.2679,-3.2683,-3.2693,-3.271,-3.2715,-3.273,-3.2709,-3.2727,-3.2738,-3.2723,-3.2745,-3.2747,-3.2754,-3.2782,-3.2794,-3.2784,-3.2836,-3.282,-3.2823,-3.2824,-3.2838,-3.2843,-3.2848,-3.2782,-3.2781,-3.2781,0,0,-3.272,-3.2725,-3.2746,-3.2751,-3.2759,-3.2757,-3.2762,-3.2768,-3.2768,-3.2791,-3.2779,-3.2792,-3.2816,-3.2821,-3.2827,-3.2869,-3.2858,-3.2873,-3.2896,-3.291,-3.2915,-3.2919,-3.2932,-3.2937,-3.2876,-3.2876,-3.2876,0,-3.2741,-3.2764,-3.2758,-3.2776,-3.2783,-3.277,-3.279,-3.2796,-3.2807,-3.2812,-3.2802,-3.283,-3.2835,-3.2862,-3.2872,-3.2878,-3.2883,-3.2872,-3.2915,-3.2919,-3.2923,-3.2935,-3.294,-3.2878,-3.2878,-3.2878,-3.2877,0,-3.2788,-3.2804,-3.2821,-3.2831,-3.284,-3.286,-3.2857,-3.2866,-3.2861,-3.286,-3.2883,-3.2887,-3.29,-3.2906,-3.2902,-3.2933,-3.2927,-3.2916,-3.2897,-3.293,-3.2942,-3.2947,-3.288,-3.288,-3.2879,-3.2879,0,0,-3.2843,-3.285,-3.2856,-3.286,-3.2868,-3.288,-3.2898,-3.291,-3.2918,-3.2927,-3.2941,-3.2961,-3.2951,-3.2958,-3.2953,-3.2967,-3.2997,-3.2954,-3.2954,-3.296,-3.303,-3.3037,-3.3043,-3.2991,-3.2992,-3.2993,-3.3029,0,-3.2882,-3.2914,-3.2909,-3.2939,-3.2953,-3.2941,-3.2957,-3.2963,-3.2963,-3.2974,-3.2975,-3.2988,-3.2974,-3.2978,-3.2991,-3.2991,-3.3011,-3.2988,-3.3004,-3.3004,-3.3,-3.3049,-3.3057,-3.309,-3.3034,-3.3034,-3.3035,0,-3.2932,-3.2941,-3.2973,-3.2977,-3.2982,-3.2997,-3.3007,-3.3018,-3.3025,-3.3024,-3.3031,-3.3024,-3.3042,-3.3024,-3.3048,-3.3032,-3.3039,-3.304,-3.3041,-3.3041,-3.302,-3.3048,-3.3101,-3.3106,-3.3042,-3.3042,-3.3041,0,-3.2966,-3.2987,-3.3008,-3.3013,-3.3018,-3.3028,-3.3031,-3.3036,-3.3044,-3.3053,-3.3057,-3.3068,-3.3074,-3.3083,-3.3079,-3.3066,-3.3103,-3.3085,-3.3101,-3.3101,-3.3108,-3.3107,-3.3161,-3.3115,-3.3115,-3.3115,-3.3115,0,-3.3009,-3.3029,-3.3024,-3.3037,-3.3058,-3.3052,-3.3073,-3.3074,-3.3079,-3.3091,-3.3082,-3.3094,-3.3089,-3.31,-3.3097,-3.3117,-3.312,-3.3119,-3.3117,-3.3119,-3.3119,-3.3121,-3.3118,-3.3116,-3.3116,-3.3116,-3.3116,0,-3.3051,-3.3049,-3.3071,-3.3074,-3.3075,-3.3091,-3.3093,-3.3105,-3.3104,-3.312,-3.3124,-3.3122,-3.3135,-3.3132,-3.3147,-3.3145,-3.3168,-3.3165,-3.3166,-3.3165,-3.3181,-3.3178,-3.3236,-3.3243,-3.3194,-3.3195,-3.3195,0,-3.3078,-3.3092,-3.3097,-3.3104,-3.3108,-3.312,-3.3127,-3.3122,-3.313,-3.3138,-3.3148,-3.316,-3.317,-3.3191,-3.3191,-3.3202,-3.3197,-3.3217,-3.3199,-3.3199,-3.3196,-3.3194,-3.3195,-3.322,-3.322,-3.3221,-3.3221,0,-3.3125,-3.3123,-3.3133,-3.3143,-3.3152,-3.316,-3.3166,-3.3173,-3.3168,-3.3178,-3.319,-3.3198,-3.3212,-3.3223,-3.3233,-3.3236,-3.3227,-3.3227,-3.3231,-3.3232,-3.3231,-3.323,-3.3174,-3.3225,-3.3225,-3.3225,-3.3224,-3.3224,-3.3159,-3.3171,-3.3175,-3.3187,-3.3192,-3.3198,-3.3209,-3.3209,-3.3219,-3.323,-3.3227,-3.3241,-3.3246,-3.3258,-3.3262,-3.3273,-3.3265,-3.3272,-3.3273,-3.3274,-3.3275,-3.3231,-3.3275,-3.3275,-3.3275,-3.3274,-3.3274,0,-3.3205,-3.3207,-3.3218,-3.3227,-3.3236,-3.3227,-3.3234,-3.3242,-3.3255,-3.326,-3.3269,-3.3283,-3.3294,-3.3295,-3.3305,-3.3314,-3.331,-3.3317,-3.3315,-3.3315,-3.3282,-3.3277,-3.3319,-3.3319,-3.3319,-3.3319,-3.3319,-3.3319,-3.3229,-3.3248,-3.3246,-3.3267,-3.3269,-3.3282,-3.3287,-3.3292,-3.3296,-3.3312,-3.3321,-3.3322,-3.3325,-3.3335,-3.3345,-3.3345,-3.3348,-3.3356,-3.3354,-3.3323,-3.3318,-3.3314,-3.3308,-3.3357,-3.3357,-3.3386,-3.3386,-3.3387]},{"header":{"parameterUnit":"m.s-1","parameterCategory":1,"la1":30.2991,"la2":30.254,"lo1":-89.0895,"lo2":-89.0444,"dy":0.0017,"dx":0.0017,"nx":28,"ny":28,"refTime":"2024-05-11T09:00:00:Z","depth":0,"parameterNumber":3,"parameterNumberName":"V-component_of_WINDS"},"data":[0,0,0,0,0,0,0,0,0,0,0,0,0,0,0,0,0,0,0,0,0,0,0,0,0,0,0,0,0,0,0,0,0,0,0,0,0,0,0,0,0,0,0,0,0,0,0,0,0,0,0,0,0,0,0,0,0,0,5.6231,5.6231,0,5.6288,5.6289,5.629,5.6243,5.6241,5.6239,5.6237,5.6292,5.6295,5.6298,0,0,0,0,0,0,0,0,0,0,0,0,0,5.6074,5.6078,5.6231,5.6231,5.6232,5.6288,5.6289,5.629,5.6243,5.6241,5.6238,5.6236,5.6291,5.6295,5.6299,0,0,0,0,0,0,0,0,0,0,0,0,0,5.6138,5.6079,5.623,5.6216,5.6215,5.6288,5.6289,5.629,5.6244,5.6241,5.6238,5.6235,5.629,5.6294,5.6299,5.6389,0,0,5.6314,5.6316,0,0,0,0,0,0,0,0,5.6135,5.6144,5.6217,5.6217,5.6216,5.6255,5.6254,5.6323,5.6244,5.6233,5.6237,5.6234,5.6282,5.6287,5.6304,5.6391,5.6393,5.6315,5.6318,5.632,5.6321,0,0,0,0,0,0,0,5.613,5.6141,5.6253,5.6218,5.6218,5.6204,5.621,5.6267,5.6273,5.6233,5.623,5.6238,5.6281,5.63,5.6305,5.6394,5.6315,5.6319,5.6322,5.6324,5.6554,5.6557,0,0,0,0,0,0,5.6128,5.6138,5.6251,5.6255,5.6167,5.6209,5.6216,5.6246,5.6272,5.6274,5.624,5.6236,5.6293,5.63,5.6307,5.6411,5.632,5.6324,5.6327,5.6551,5.6554,5.6558,0,0,0,0,0,0,5.6125,5.6139,5.6249,5.6196,5.6209,5.6215,5.6249,5.6248,5.6267,5.6278,5.6278,5.6259,5.6291,5.63,5.6368,5.6412,5.6327,5.6331,5.6547,5.6552,5.6556,5.6621,0,0,0,0,0,0,5.6121,5.6138,5.6173,5.6197,5.6212,5.6311,5.6252,5.6252,5.6276,5.6271,5.6295,5.6296,5.6289,5.6361,5.6373,5.6418,5.6335,5.6543,5.6549,5.6555,5.6615,5.6628,5.6638,0,0,0,0,0,5.6115,5.6189,5.6175,5.6189,5.6257,5.6314,5.6322,5.6314,5.628,5.6315,5.6321,5.6295,5.6406,5.6368,5.6382,5.6428,5.654,5.6547,5.6554,5.661,5.6625,5.6638,0,0,0,0,0,0,5.617,5.6192,5.6177,5.6261,5.6286,5.6306,5.6349,5.6331,5.6365,5.6358,5.6345,5.6351,5.6422,5.6432,5.639,5.6514,5.6467,5.6477,5.6505,5.652,5.6531,5.6526,5.6339,0,0,0,0,0,5.6192,5.6238,5.6255,5.6327,5.634,5.6343,5.6368,5.6359,5.6384,5.6394,5.6405,5.6429,5.6468,5.6495,5.6532,5.6617,5.662,5.6655,5.6667,5.6676,5.6684,5.6727,5.6742,5.6581,5.6581,5.6581,0,0,5.6237,5.6255,5.6285,5.6338,5.6357,5.6403,5.6352,5.6404,5.6437,5.6401,5.6466,5.6475,5.65,5.6576,5.661,5.6587,5.673,5.6685,5.6693,5.6696,5.6736,5.6751,5.6765,5.6586,5.6585,5.6584,0,0,5.6344,5.6363,5.6424,5.6444,5.6472,5.6473,5.6488,5.651,5.6515,5.658,5.6553,5.6592,5.6662,5.668,5.6699,5.681,5.6786,5.6822,5.6882,5.6924,5.6936,5.6947,5.6985,5.6998,5.6831,5.6831,5.6831,0,5.6396,5.6466,5.6458,5.6511,5.6534,5.6504,5.6565,5.6583,5.6622,5.6638,5.6611,5.6697,5.6712,5.679,5.6817,5.6834,5.6848,5.6819,5.6936,5.6947,5.6957,5.6992,5.7006,5.6835,5.6835,5.6834,5.6834,0,5.6528,5.6577,5.6623,5.6662,5.669,5.6746,5.6744,5.6773,5.6762,5.6765,5.683,5.6847,5.6886,5.6904,5.6894,5.6981,5.6965,5.6938,5.6889,5.6976,5.7009,5.7023,5.6841,5.6839,5.6838,5.6837,0,0,5.6671,5.6703,5.672,5.6736,5.6765,5.6801,5.6855,5.6894,5.6918,5.6946,5.6989,5.7048,5.7022,5.7043,5.7034,5.7071,5.7154,5.7038,5.7038,5.7057,5.7248,5.7267,5.7283,5.714,5.7142,5.7144,5.7245,0,5.6776,5.6872,5.6865,5.6954,5.6997,5.6969,5.7015,5.7036,5.704,5.7076,5.708,5.7121,5.7085,5.7097,5.7132,5.7137,5.7192,5.713,5.7177,5.7179,5.717,5.7301,5.7322,5.7416,5.7258,5.726,5.7262,0,5.6913,5.6945,5.7038,5.7058,5.7076,5.7118,5.7152,5.7188,5.721,5.721,5.7233,5.7217,5.7269,5.7221,5.7291,5.7248,5.7267,5.7273,5.7276,5.7278,5.7225,5.7305,5.7446,5.746,5.7283,5.7281,5.7279,0,5.7004,5.7071,5.7135,5.715,5.7175,5.7205,5.7217,5.7236,5.726,5.7289,5.7303,5.7338,5.7357,5.7383,5.7376,5.7342,5.7447,5.7399,5.7446,5.7446,5.7468,5.7466,5.7612,5.7484,5.7484,5.7483,5.7483,0,5.7122,5.7179,5.7176,5.7215,5.7278,5.7268,5.733,5.7338,5.7355,5.7394,5.7372,5.7408,5.7398,5.7433,5.7428,5.7485,5.7494,5.7493,5.7491,5.7494,5.7494,5.7505,5.7498,5.7487,5.7486,5.7485,5.7485,0,5.7234,5.7235,5.7302,5.732,5.7326,5.7371,5.7385,5.7421,5.7423,5.7472,5.7482,5.7485,5.7525,5.7521,5.7566,5.7562,5.7632,5.7623,5.7625,5.7622,5.7669,5.7663,5.7825,5.7845,5.7706,5.7707,5.7708,0,5.7308,5.7352,5.7375,5.7399,5.7413,5.7453,5.7476,5.7468,5.7493,5.7521,5.7552,5.759,5.762,5.7685,5.769,5.7723,5.7713,5.7768,5.7718,5.7719,5.7711,5.7708,5.7711,5.7777,5.7778,5.778,5.7781,0,5.7439,5.7437,5.7472,5.7507,5.7536,5.7563,5.7587,5.7608,5.7601,5.763,5.7671,5.7694,5.774,5.7777,5.7808,5.7818,5.7798,5.7796,5.7809,5.7812,5.781,5.7809,5.7649,5.7792,5.7791,5.779,5.779,5.7789,5.7533,5.7569,5.7591,5.763,5.7647,5.767,5.7704,5.771,5.7744,5.7781,5.7773,5.7819,5.7837,5.7878,5.7891,5.7925,5.7905,5.7923,5.7927,5.7932,5.7936,5.7806,5.7931,5.793,5.793,5.793,5.7929,0,5.7661,5.7672,5.7709,5.7743,5.7774,5.7753,5.7778,5.7804,5.7845,5.7865,5.7895,5.794,5.7976,5.7983,5.8016,5.8042,5.8033,5.8051,5.8048,5.805,5.7953,5.7938,5.8057,5.8057,5.8057,5.8057,5.8057,5.8057,5.773,5.779,5.779,5.7857,5.7868,5.7913,5.7929,5.7949,5.7964,5.8017,5.8046,5.8051,5.8065,5.8099,5.813,5.8131,5.8143,5.8164,5.8161,5.807,5.8057,5.8045,5.8031,5.8167,5.8167,5.8254,5.8255,5.8256]}]]